CZ-3B R/B (49063 NORAD) Tracking and Keplerian Element Data

This shows tracking and keplerian element data for the satellite.

Feedback or suggestion? Click here.




ElementValue
Catalog49063
NameCZ-3B R/B
Epoch Orbit54
Epoch Day240.26932405
Epoch Year2021
RAAN190.9907
Inclination27.0783
Eccentricity0.7247148
Argument of Perigee193.2129
Mean Anonmoly125.6314
Mean Motion2.37108125
Decay Rate0.00047909
L11 49063U 21071B 21240.26932405 .00047909 64613-6 10315-2 0 9990
L22 49063 27.0783 190.9907 7247148 193.2129 125.6314 2.37108125 546

Live tracking and technical data element details for CZ-3B R/B (NORAD 49063). CZ-3B R/B can be tracked NOW for your location showing map with azimuth and elevation plus other details from your city location.

Track the satellite on the map from your city or location and see movement details for azimuth, elevation, latitude, longitude, range, height, and movement on the map or in text.







IsCatalogInMostPopularTable: catalog: 49063, numindb: 9
Update: records affected: 1



GetName: 49063 CZ-3B R/B

Hit Count: updated at: Thu, 28 Oct 2021 11:42:31 GMT